Location: Alafon
(8.4500°N, 4.2333°E)
Time: 13:09:39
(UTC+00:00)

Tiros 1 - All Passes

Search period start: 04 August 2021 00:00
Search period end: 14 August 2021 00:00
Orbit: 630 x 664 km, 48.4° (Epoch: 03 August)

Date Brightness Start Highest point End Pass type
(mag) Time Alt. Az. Time Alt. Az. Time Alt. Az.
04 Aug - 00:11:10 10° N 00:14:59 25° NE 00:18:46 10° ESE night (unlit)
04 Aug - 01:53:12 10° WNW 01:56:59 25° SW 02:00:46 10° S night (unlit)
04 Aug - 12:30:00 10° SSE 12:31:43 12° SE 12:33:26 10° ESE daylight
04 Aug - 14:08:58 10° SW 14:13:41 57° NW 14:18:23 10° NNE daylight
05 Aug - 00:36:17 10° NW 00:40:55 83° NE 00:45:32 10° SE night (unlit)
05 Aug - 12:53:08 10° SSW 12:57:33 37° SE 13:01:59 10° ENE daylight
05 Aug - 14:36:18 10° W 14:39:41 19° NW 14:43:03 10° N daylight
05 Aug - 23:21:05 10° N 23:24:43 22° NE 23:28:19 10° E night (unlit)
06 Aug - 01:02:46 10° WNW 01:06:45 28° SW 01:10:43 10° S night (unlit)
06 Aug - 11:41:03 10° SE 11:41:27 10° SE 11:41:51 10° ESE daylight
06 Aug - 13:18:40 10° SW 13:23:24 65° NW 13:28:10 10° NNE daylight
06 Aug - 23:46:02 10° NW 23:50:41 72° NE 23:55:16 10° SE night (unlit)
07 Aug - 12:03:01 10° SSW 12:07:18 33° SE 12:11:35 10° ENE daylight
07 Aug - 13:45:46 10° W 13:49:23 21° NW 13:53:01 10° N daylight
07 Aug - 22:31:02 10° N 22:34:26 20° NE 22:37:49 10° E night (unlit)
08 Aug - 00:12:21 10° WNW 00:16:30 32° SW 00:20:38 10° SSE night (unlit)
08 Aug - 12:28:22 10° SW 12:33:08 75° NW 12:37:56 10° NE daylight
08 Aug - 22:55:49 10° NNW 23:00:25 63° NE 23:05:00 10° SE night (unlit)
09 Aug - 11:12:55 10° S 11:17:02 29° SE 11:21:10 10° ENE daylight
09 Aug - 12:55:16 10° W 12:59:05 24° NW 13:02:57 10° N daylight
09 Aug - 21:41:00 10° N 21:44:10 18° NE 21:47:18 10° E night (unlit)
09 Aug - 23:21:58 10° WNW 23:26:16 37° SW 23:30:32 10° SSE night (unlit)
10 Aug - 11:38:06 10° SW 11:42:52 85° NW 11:47:40 10° NE daylight
10 Aug - 22:05:35 10° NNW 22:10:10 55° NE 22:14:42 10° SE night (unlit)
10 Aug - 23:50:37 10° WSW 23:52:05 11° SW 23:53:33 10° SW night (unlit)
11 Aug - 10:22:51 10° S 10:26:46 25° SE 10:30:43 10° ENE daylight
11 Aug - 12:04:48 10° WSW 12:08:49 26° NW 12:12:51 10° N daylight
11 Aug - 20:51:02 10° N 20:53:52 16° NE 20:56:42 10° E visible
11 Aug - 22:31:36 10° WNW 22:36:01 42° SW 22:40:25 10° SSE night (unlit)
12 Aug - 10:47:51 10° SW 10:52:37 85° SE 10:57:24 10° NE daylight
12 Aug - 21:15:23 10° NNW 21:19:54 48° NE 21:24:23 10° SE visible
12 Aug - 22:59:40 10° W 23:01:50 13° SW 23:04:00 10° SSW night (unlit)
13 Aug - 09:32:49 10° S 09:36:31 22° SE 09:40:13 10° ENE daylight
13 Aug - 11:14:22 10° WSW 11:18:32 30° NW 11:22:43 10° NNE daylight
13 Aug - 20:01:06 10° NNE 20:03:35 14° NE 20:06:04 10° ENE visible
13 Aug - 21:41:15 10° NW 21:45:46 49° SW 21:50:16 10° SSE night (unlit)
